OBJECT A, 68414

Orbit data source: Space-Track

You're viewing an Uncataloged Satellite

Recently launched and/or uncataloged satellites may have evolving metadata. Metadata may include but not limited to: Owner, Maufacturer, Bus, Motor, and Mission.

OBJECT A, 68414 is a Chinese satellite in LEO that was launched on Mon, 30 Mar 2026 UTC via a LIJIAN-2 launch vehicle from the Jiuquan Satellite Launch Center, China (JSC). Unknown objects in Earth's orbit typically refer to objects detected orbiting the Earth but have not yet been identified or cataloged. These objects could be anything from previously untracked satellites, spent rocket stages, debris from satellite collisions, or even natural meteoroids temporarily captured by Earth's gravity.

Loading next visibility...
Identifier
68414, 2026-066C
Orbit
LEO
Country
Flag of CNCN / PRC
Related business
Flag of CNZhongke Satellite Tech. Group (CN)
Manufacturer
ZHWK
Mission
Spacecraft
Bus & Motor
XZC1, Unknown motor
Mass
~100 kg wet, ~100 kg dry
Launch date (UTC)
2026-03-30 (6 days ago)
Launch vehicle
LIJIAN-2
Launch site
Jiuquan Satellite Launch Center, China (JSC)
Object type
Unknown
Shape & HBR
Unknown
Radar Cross Section
RCS unknown

Expand to show TLE details & history
Last TLE update: 2 days ago

TLE from 2 days ago
0 OBJECT A
1 68414U 26066C   26093.80455066  .00002339  00000-0  22927-3 0  9999
2 68414  85.1331 274.8711 0065547  46.0550 314.6055 14.90103412   664
Epoch: 2026-04-03T19:18Z
TLE epoch observation values (Epoch: 2026-04-03T19:18:33.177Z)
Latitude
-0.00008°
Longitude
153.09944°
Altitude
568.76 km
Speed
7.594 km/s
True Right ascension
18h 19m 29s
True Declination
0° 00' 00"
Sunlit
Object was in daylight at epoch
Visualization orbit readout
Latitude
Unknown
Longitude
Unknown
Altitude
Unknown
Speed
Unknown
Apparent Right ascension
Unknown
Apparent Declination
Unknown
Sunlit
N/A
Visualization observer readout
Local Sidereal Time
23:11:05
Azimuth
Unknown
Elevation
Unknown
Doppler factor
Unknown
Orbital elements
Apogee altitude
640.233 km
Perigee altitude
548.826 km
Semi-major axis
6,972.666 km
Eccentricity
0.00655
Inclination
85.1331°
RAAN
274.8711°
Arg. of periapsis
46.055°
True anomaly
314.06765°
Mean anomaly
314.6055°
Eccentric anomaly
314.33689°
Mean motion
3.72773 °/min
Orbital period
96.57 mins
BSTAR
0.00022927
Loading maneuver chart data...
Computing Atmospheric mass density...
Loading historical data...
Loading historical data...
Loading historical data...
Loading historical data...
Loading historical data...
Loading historical data...
Loading historical data...
Other satellites on launch #66 in the year 2026 (2026-03-30 UTC)

Documentation

Showing up to 5 results
|